Location: Sternwarte ZA, Rosenfeld-Brittheim
(48.2889°N, 8.6789°E)
Time: 02:09:18
(UTC+02:00)

ISS - Pass Details

Date: 14 September 2018
Orbit: 403 x 409 km, 51.6° (Epoch: 24 September)

Event Time Altitude Azimuth Distance (km) Brightness Sun altitude
Exits shadow 04:16:01 25° 70° (ENE) 852 -1.6 -25.8°
Drops below altitude 10° 04:17:44 10° 85° (E) 1,490 -0.3 -25.5°
Sets 04:19:47 0° 90° (E) 2,320 0.8 -25.3°
